Weather History for KNUQ - August, 2007

Change the Weather History Date:

Sunday, August 12, 2007

  Actual Average Record
Temperature  
Mean Temperature 63 °F 68 °F  
Max Temperature 72 °F 77 °F 91 °F (1998)
Min Temperature 55 °F 59 °F 49 °F (1945)
Degree Days  
Heating Degree Days 2    
Month to date heating degree days  
Since 1 June heating degree days  
Since 1 July heating degree days  
Cooling Degree Days 0    
Month to date cooling degree days  
Year to date cooling degree days  
Since 1 June cooling degree days  
Growing Degree Days 13 (Base 50)    
Moisture  
Dew Point 51 °F    
Average Humidity 67    
Maximum Humidity 88    
Minimum Humidity 51    
Precipitation  
Precipitation 0.00 in 0.00 in 0.01 in (2008)
Month to date precipitation 0.00  
Year to date precipitation 9.65  
Since 1 July precipitation 0.02  
Sea Level Pressure  
Sea Level Pressure 30.05 in    
Wind  
Wind Speed 5 mph (North)    
Max Wind Speed 21 mph    
Max Gust Speed 24 mph    
Visibility 10 miles    
Events      
T = Trace of Precipitation, MM = Missing Value Source: NWS Daily Summary

Daily Weather History Graph

Daily Weather History Graph

Search for Another Location

Airport or City:

Trip Planner

Search our weather history database for the weather conditions in past years. The results will help you decide how hot, cold, wet, or windy it might be!

Date:

Astronomy

Aug. 12, 2007 Rise Set
Actual Time 6:21 AM PDT 8:04 PM PDT
Civil Twilight 5:53 AM PDT 8:32 PM PDT
Nautical Twilight 5:19 AM PDT 9:06 PM PDT
Astronomical Twilight 4:43 AM PDT 9:41 PM PDT
Moon 5:56 AM PDT (8/12) 8:11 PM PDT (8/12)
Length of Visible Light 14h 38m
Length of Day
13h 42m
Waning Crescent, 0% of the Moon is Illuminated
Aug 12
Waning Crescent
Aug 12
New
Aug 20
First Quarter
Aug 28
Full
Sep 3
Last Quarter

Hourly Weather History & Observations

Time (PDT) Temp. Dew Point Humidity Pressure Visibility Wind Dir Wind Speed Gust Speed Precip Events Conditions
12:56 AM 57.9 °F 51.1 °F 78% 30.03 in 10.0 mi Calm Calm - N/A   Clear
1:56 AM 57.0 °F 51.1 °F 81% 30.03 in 10.0 mi East 3.5 mph - N/A   Clear
2:56 AM 57.0 °F 51.1 °F 81% 30.02 in 10.0 mi Calm Calm - N/A   Clear
3:56 AM 57.0 °F 52.0 °F 83% 30.03 in 10.0 mi Calm Calm - N/A   Clear
4:56 AM 55.9 °F 50.0 °F 80% 30.03 in 10.0 mi Calm Calm - N/A   Clear
5:56 AM 55.0 °F 50.0 °F 83% 30.04 in 10.0 mi Calm Calm - N/A   Clear
6:38 AM 55.4 °F 51.8 °F 88% 30.04 in 10.0 mi Calm Calm - N/A   Mostly Cloudy
6:56 AM 55.9 °F 50.0 °F 80% 30.06 in 10.0 mi Calm Calm - N/A   Overcast
7:56 AM 57.9 °F 51.1 °F 78% 30.07 in 10.0 mi North 6.9 mph - N/A   Overcast
8:56 AM 59.0 °F 51.1 °F 75% 30.07 in 10.0 mi NNW 5.8 mph - N/A   Mostly Cloudy
9:22 AM 62.6 °F 51.8 °F 68% 30.07 in 10.0 mi NNE 5.8 mph - N/A   Scattered Clouds
9:56 AM 63.0 °F 52.0 °F 67% 30.08 in 10.0 mi North 4.6 mph - N/A   Scattered Clouds
10:56 AM 66.0 °F 53.1 °F 63% 30.08 in 10.0 mi NNE 4.6 mph - N/A   Clear
11:56 AM 66.9 °F 54.0 °F 63% 30.08 in 10.0 mi NNW 8.1 mph - N/A   Clear
12:56 PM 69.1 °F 54.0 °F 58% 30.07 in 10.0 mi NNW 10.4 mph - N/A   Clear
1:56 PM 69.1 °F 54.0 °F 58% 30.07 in 10.0 mi North 15.0 mph - N/A   Clear
2:56 PM 70.0 °F 54.0 °F 57% 30.05 in 10.0 mi NNW 18.4 mph - N/A   Clear
3:56 PM 71.1 °F 53.1 °F 53% 30.03 in 10.0 mi NNW 16.1 mph 24.2 mph N/A   Clear
4:56 PM 71.1 °F 52.0 °F 51% 30.02 in 10.0 mi NNW 18.4 mph 24.2 mph N/A   Clear
5:56 PM 71.1 °F 53.1 °F 53% 30.01 in 10.0 mi North 20.7 mph - N/A   Clear
6:56 PM 70.0 °F 52.0 °F 53% 30.01 in 10.0 mi NNW 12.7 mph - N/A   Clear
7:56 PM 66.0 °F 48.0 °F 52% 30.04 in 10.0 mi NNW 8.1 mph - N/A   Clear
8:56 PM 63.0 °F 48.0 °F 58% 30.05 in 10.0 mi North 8.1 mph - N/A   Clear
9:56 PM 61.0 °F 46.9 °F 60% 30.06 in 10.0 mi North 4.6 mph - N/A   Clear
10:56 PM 60.1 °F 46.0 °F 60% 30.06 in 10.0 mi North 5.8 mph - N/A   Clear
11:56 PM 60.1 °F 46.0 °F 60% 30.07 in 10.0 mi Calm Calm - N/A   Clear